Theta_e
289 283 281 282 284 287 288 289 290 287 286 286 285 284 283 283 285 288 288 288 286 285 284 286 287 287 288 289 291 292 292 290 290 290 291 292 293 293 293 293 294 293 294 295 294 294 297 299 298 297 296 295 296 296 297 298 298 300 301 303 303 303 302 302 301 301 301 300 298 299 301 302 302 302 302 302 303 303 303 303 304 304 304 304 303 302
291 284 285 286 287 288 289 290 289 288 286 286 284 283 284 283 283 287 288 289 287 286 283 285 285 287 289 291 292 293 292 291 291 291 291 292 293 293 292 292 292 293 293 296 299 300 299 298 298 296 296 296 296 296 297 299 300 300 300 302 303 302 302 303 303 303 302 302 302 302 302 302 302 302 302 302 302 303 302 302 303 304 304 304 303 303
283 282 286 288 289 288 289 288 288 288 286 286 285 285 284 285 285 288 287 288 289 287 285 286 286 288 290 291 293 293 292 293 293 292 293 293 293 293 293 291 291 291 292 297 296 299 299 299 299 297 297 296 295 295 296 297 299 299 300 301 302 302 303 303 303 303 302 302 302 302 300 302 299 300 303 302 302 301 301 301 303 304 304 304 303 302
283 284 288 288 289 289 289 290 289 287 287 285 285 283 283 285 283 282 288 287 288 287 287 288 286 288 291 292 293 294 293 293 293 292 293 293 293 293 294 293 292 292 293 296 297 299 298 298 298 298 299 298 297 295 295 295 299 300 302 301 302 302 303 303 303 304 302 302 300 300 300 301 302 301 301 301 300 301 300 301 302 304 304 304 303 302
286 288 291 289 289 289 288 289 288 286 285 285 286 284 284 285 285 285 286 288 288 288 288 287 286 287 288 287 288 289 287 289 290 291 290 290 292 293 293 292 293 294 295 295 295 296 298 299 299 298 298 296 297 296 295 294 295 300 300 301 301 302 302 302 303 303 301 302 299 299 299 300 299 299 300 299 299 301 301 301 301 303 303 303 303 302
288 291 291 291 290 290 288 285 286 286 283 282 285 287 287 287 286 286 286 286 284 282 285 286 280 280 282 284 285 289 288 290 289 289 291 289 290 291 293 293 293 294 292 295 297 296 295 297 297 298 298 297 295 296 296 294 295 296 297 298 299 299 301 302 302 302 302 302 301 299 299 299 299 299 299 300 301 300 300 301 302 302 302 302 302 302
287 289 289 288 289 288 289 287 287 288 283 282 285 287 288 286 285 284 284 284 279 279 284 286 279 277 282 286 288 290 289 289 291 290 290 289 291 291 293 293 293 295 294 293 293 294 295 295 295 296 297 297 296 297 295 294 294 295 296 298 300 301 301 301 302 302 303 301 301 301 301 301 301 300 300 300 300 302 300 301 300 302 301 302 302 301
290 288 288 289 288 286 285 284 287 288 284 283 286 286 287 286 285 284 284 283 282 282 284 285 284 278 280 285 287 287 285 288 289 290 288 288 290 292 292 292 292 293 292 294 294 295 294 293 295 297 299 297 298 297 295 294 294 295 296 297 299 300 301 301 302 301 303 302 301 301 300 301 301 301 300 300 299 300 300 299 300 301 301 301 302 302
290 287 286 287 286 285 284 287 287 289 286 284 287 288 287 288 285 284 284 283 281 280 280 279 282 279 279 283 286 286 286 287 286 286 286 288 291 291 292 294 293 293 293 293 295 295 294 294 293 294 296 298 296 295 296 296 295 295 294 297 297 299 300 299 300 302 301 302 301 301 301 300 300 300 299 299 299 299 299 299 298 300 300 300 301 302
287 289 286 289 287 285 286 283 285 287 285 286 287 288 285 284 284 284 282 283 280 277 277 278 280 277 280 281 283 283 282 284 285 287 287 289 289 290 292 292 293 292 292 292 292 292 293 292 292 293 295 296 297 295 295 294 294 294 293 295 296 297 298 299 300 301 301 301 301 300 300 300 299 299 297 298 298 298 298 299 298 299 300 300 300 301
288 291 290 287 286 288 286 286 284 287 285 287 285 286 281 281 281 279 279 280 277 273 277 279 279 279 277 281 283 282 286 285 285 287 288 288 290 290 291 291 292 292 293 293 293 293 293 293 294 294 295 295 295 293 294 295 294 294 294 295 296 297 298 299 299 300 301 301 301 301 300 300 299 297 297 297 297 297 297 299 298 299 300 300 301 300
287 287 286 286 287 286 286 285 285 286 285 286 284 282 280 281 278 278 274 275 274 272 277 278 279 279 275 280 283 285 284 283 285 288 288 287 288 291 291 292 291 290 291 292 293 295 294 295 295 293 295 295 294 294 294 293 294 294 294 293 295 294 296 297 299 299 300 300 300 300 300 300 299 298 298 298 298 298 299 299 299 298 298 299 300 299
284 285 284 287 289 288 284 284 284 282 284 284 281 279 276 271 272 271 273 272 271 273 279 278 279 278 279 285 287 287 288 288 286 287 289 289 288 289 290 291 289 289 290 292 292 293 294 294 295 294 294 293 293 295 293 294 293 294 294 293 294 295 294 297 298 298 299 299 300 300 299 300 299 299 299 299 299 299 299 299 299 298 299 299 299 299
282 282 285 285 287 287 286 283 280 282 282 282 282 278 273 269 269 266 265 266 269 276 279 278 281 278 282 286 289 290 292 292 292 290 289 289 289 289 291 291 290 290 291 292 292 292 293 294 295 294 294 294 295 293 293 292 293 293 294 293 294 295 294 295 297 298 298 299 300 299 299 300 299 299 299 299 299 299 299 300 300 300 300 300 300 300
274 276 280 285 284 285 287 286 283 278 281 283 280 282 277 269 266 265 265 270 271 272 277 278 275 274 277 284 286 287 288 287 287 287 287 287 288 288 290 289 289 290 290 289 291 293 295 295 294 295 295 294 293 293 292 291 292 292 294 295 295 295 295 295 297 298 298 299 299 299 299 299 299 300 299 300 300 299 299 299 300 300 301 301 301 301
280 279 281 284 284 285 285 286 283 281 282 281 280 280 277 278 274 273 269 268 269 270 271 274 276 276 283 285 288 291 290 289 288 288 287 288 289 289 290 291 292 292 292 290 291 293 294 294 293 293 293 294 293 293 291 292 293 293 295 294 295 296 296 295 296 298 299 299 299 298 298 299 299 300 299 299 298 299 300 300 300 300 301 301 301 301
278 276 282 283 283 284 284 284 287 283 277 280 281 277 279 279 280 273 272 272 272 270 273 273 278 281 284 288 291 287 284 286 285 286 286 288 288 288 291 291 291 292 291 290 292 293 294 291 291 293 293 293 292 292 295 295 295 295 295 295 296 295 294 295 296 297 298 298 297 298 298 298 298 298 299 299 298 298 299 299 300 300 300 300 300 300
278 276 283 282 283 285 283 284 285 283 283 281 278 278 280 282 281 275 271 266 265 267 271 274 275 279 277 279 285 284 284 283 284 285 287 288 289 288 291 291 292 292 290 290 292 292 292 292 292 293 293 293 295 295 295 295 294 295 296 296 296 296 296 296 296 296 297 297 297 297 298 298 298 298 298 298 298 298 298 298 299 299 299 299 300 301
284 278 278 281 282 282 282 284 284 284 285 281 280 280 282 274 275 273 268 268 266 264 264 271 274 276 279 281 281 286 286 288 285 285 286 288 288 289 289 290 289 288 288 290 292 293 293 292 293 293 293 294 293 293 294 294 293 293 293 295 296 297 297 297 297 296 297 297 298 299 298 298 298 298 298 297 297 297 298 298 298 298 299 299 299 299
283 276 276 281 282 283 282 281 278 280 284 280 283 280 278 278 272 270 276 268 270 265 265 269 270 278 280 281 281 286 287 287 285 284 285 287 289 290 289 289 290 290 290 291 292 293 293 293 293 293 293 293 293 294 294 292 291 293 295 294 295 295 293 293 295 296 297 297 298 298 297 297 298 298 298 297 297 297 298 298 298 298 298 299 299 299
282 280 271 277 279 281 280 280 280 281 280 280 281 276 278 276 277 278 275 273 272 264 263 263 271 277 280 283 283 287 287 288 286 286 286 286 286 287 288 289 290 290 290 291 292 293 293 293 292 292 292 292 290 290 290 291 294 295 294 294 295 295 295 294 295 295 297 297 297 297 297 297 297 297 297 297 297 298 298 298 298 299 299 298 299 299
280 279 276 277 279 276 280 281 282 282 284 282 282 281 282 279 275 271 273 273 267 271 271 264 274 279 286 286 287 287 287 286 284 285 286 285 286 287 288 288 289 291 291 293 293 292 293 292 291 289 288 287 288 290 290 292 291 291 293 295 295 294 295 295 295 295 297 296 297 296 297 296 296 297 296 296 296 297 297 297 298 298 297 298 298 298
283 278 275 272 277 281 281 281 281 281 280 278 282 280 282 280 278 271 268 269 270 271 267 266 268 279 284 284 286 285 285 285 284 282 284 284 285 285 287 288 289 289 291 293 294 294 293 292 291 288 287 288 290 291 291 289 291 294 294 294 293 294 295 295 296 295 295 295 295 296 296 296 296 296 296 296 296 296 297 297 296 295 297 298 297 297
290 279 274 278 276 276 279 280 279 280 281 282 281 279 280 281 282 282 277 271 271 269 272 270 270 280 285 283 285 284 282 281 281 281 284 286 285 285 285 287 288 289 291 291 290 292 293 291 288 287 288 290 290 289 290 291 291 292 292 293 292 293 294 293 293 292 293 293 294 294 294 295 295 295 295 296 297 297 297 297 296 295 296 296 296 297
281 279 279 269 268 269 271 277 277 275 278 279 279 280 283 283 282 279 277 274 274 273 275 274 271 279 286 283 283 283 285 285 285 284 283 286 287 285 285 287 288 289 290 291 292 294 292 289 290 291 290 289 289 287 288 289 290 290 291 291 291 293 293 293 290 292 292 293 294 293 294 294 294 295 295 296 296 296 295 294 295 293 294 294 294 294
283 278 279 271 271 268 265 266 268 273 278 278 276 278 281 282 280 279 276 273 273 271 276 271 275 284 287 286 289 289 288 287 289 288 285 285 285 288 288 288 287 287 290 291 292 291 292 293 292 289 289 289 288 288 288 289 289 290 290 291 290 291 290 291 290 292 293 292 293 293 293 293 292 294 295 295 294 294 294 294 292 292 292 293 295 293
278 277 281 280 278 277 279 277 276 279 278 278 279 280 281 282 282 282 275 272 276 275 274 278 282 284 285 287 287 289 290 289 290 290 290 292 289 287 285 286 288 289 289 290 291 292 290 290 291 290 289 289 288 287 289 289 289 289 289 289 288 289 290 290 290 291 291 290 291 291 291 292 293 293 293 292 293 293 290 291 292 291 293 291 293 293
274 277 281 281 281 283 283 282 279 281 279 278 280 279 281 281 281 281 279 279 282 275 276 281 282 281 284 286 288 288 289 290 290 289 289 288 289 291 291 290 291 288 288 288 288 289 290 292 292 290 288 287 288 288 288 288 289 290 289 290 288 288 289 290 289 289 289 288 289 290 290 290 290 290 291 290 289 289 290 289 289 290 291 290 291 292
278 278 281 280 281 282 282 282 280 279 280 280 280 281 280 281 280 279 280 283 282 278 279 281 282 281 284 287 289 290 290 290 289 290 290 290 290 289 286 287 289 290 291 291 290 290 290 291 292 292 290 288 286 287 288 288 287 285 285 285 285 286 288 288 289 288 288 287 289 289 288 287 286 286 287 287 287 287 288 289 289 289 289 288 289 292
279 277 276 280 281 281 282 282 282 280 280 281 280 280 281 280 280 282 282 284 284 282 284 283 281 282 286 288 290 291 292 291 290 288 286 286 287 287 286 287 288 290 290 290 290 290 290 291 291 291 291 287 286 287 288 288 287 288 289 288 285 286 285 287 288 289 287 288 288 286 284 285 285 286 286 286 287 288 287 287 287 288 287 288 288 288
284 276 284 276 276 279 281 281 280 280 279 279 281 281 280 280 281 282 283 283 284 283 284 283 283 283 288 291 291 292 292 293 292 290 291 291 288 285 285 286 288 289 289 288 288 289 290 290 291 290 289 288 286 287 288 290 289 288 286 286 286 287 286 286 286 286 287 288 285 284 284 285 285 285 287 286 286 285 286 285 285 285 286 286 286 286
280 273 273 270 274 273 276 280 281 279 278 277 279 280 279 280 279 281 280 283 282 282 283 282 281 282 289 292 291 291 291 291 290 291 291 291 289 287 287 287 288 288 288 290 291 292 292 292 291 290 289 288 287 286 287 288 287 286 288 286 286 285 284 284 286 286 284 284 283 284 285 285 284 285 285 285 285 284 284 284 284 285 285 285 286 286
279 274 274 270 273 274 274 274 273 274 276 277 278 279 281 283 284 284 284 283 285 286 283 280 282 288 290 291 288 288 289 289 290 290 290 287 287 288 288 288 289 289 290 291 291 291 291 291 291 291 290 288 287 286 287 289 288 288 288 286 285 284 285 285 285 284 285 284 285 283 284 284 286 284 284 284 284 284 284 284 284 284 285 286 284 284
275 277 272 273 273 263 269 268 269 272 271 273 281 284 284 282 283 282 282 284 285 287 286 288 288 289 287 288 288 289 289 290 291 291 287 289 288 286 287 288 289 289 290 291 291 291 291 291 290 289 289 288 287 286 286 287 289 287 286 286 284 285 283 285 283 284 284 283 283 283 282 284 285 285 284 283 283 284 284 285 286 284 284 284 283 285
278 275 273 270 272 268 268 270 272 269 273 279 279 283 286 286 285 284 285 286 287 287 287 287 288 287 289 289 290 290 291 292 290 286 289 287 286 288 288 287 288 289 289 290 290 290 290 290 289 287 284 285 284 283 285 283 284 284 284 284 284 282 284 282 284 283 283 284 282 283 283 284 283 283 283 282 283 282 283 284 282 283 283 284 285 286
277 278 270 272 267 266 267 269 265 273 277 278 278 278 281 282 282 283 282 285 286 287 287 286 287 289 290 290 291 292 292 289 286 287 287 291 292 291 288 287 288 289 289 290 290 290 290 289 288 287 286 284 283 283 284 284 284 285 283 283 284 283 284 284 284 283 283 283 281 282 280 282 282 282 281 282 282 283 282 282 283 284 281 281 282 282
282 279 275 274 270 275 269 271 276 281 280 282 280 278 281 279 280 281 279 283 286 288 287 286 287 288 289 290 291 292 289 285 286 290 293 293 293 290 290 291 291 291 292 291 290 290 288 286 286 285 283 282 283 284 284 283 284 285 284 284 282 283 283 283 283 281 281 282 281 281 281 281 282 282 281 281 282 281 281 281 282 282 281 282 280 281
283 281 277 279 274 278 268 270 270 269 271 276 282 285 286 286 285 286 282 283 286 288 288 288 287 288 289 290 290 289 285 284 284 287 292 293 290 291 290 292 292 292 289 288 284 282 281 281 282 283 284 283 282 281 282 283 285 284 283 282 282 281 281 280 279 280 280 280 279 280 280 280 281 281 281 281 281 280 280 280 280 281 281 281 281 282
277 278 281 281 276 271 273 272 271 270 275 279 279 283 284 286 285 281 276 279 282 286 288 289 288 289 289 289 289 285 283 282 283 288 292 290 286 287 289 289 287 284 283 283 284 283 281 281 282 281 282 282 281 279 281 283 284 283 281 279 278 278 277 277 277 278 278 278 278 279 279 280 280 280 280 281 279 279 281 280 279 279 279 280 280 280
278 277 278 278 278 277 273 271 272 275 276 277 281 281 282 283 285 282 272 275 283 286 288 289 289 289 289 290 285 284 284 281 284 288 292 288 285 283 283 285 281 281 281 281 281 280 280 279 280 278 277 276 275 277 281 281 281 279 277 276 276 276 275 275 276 276 277 277 277 277 278 278 278 278 278 279 279 280 279 278 279 279 279 279 279 280
277 275 277 277 278 279 279 275 277 278 283 279 278 279 281 284 283 275 274 278 285 288 289 289 289 289 289 286 286 285 286 290 292 291 282 282 283 282 280 280 280 280 280 279 278 278 276 275 274 273 273 274 275 277 278 278 277 276 275 275 274 273 274 274 275 276 276 276 276 276 276 276 277 277 277 277 278 278 278 278 278 278 279 278 279 279
278 278 275 278 278 277 278 276 276 279 283 285 279 283 285 283 271 276 282 282 283 284 283 287 288 288 288 286 286 289 290 291 293 285 282 282 281 280 280 280 279 277 277 277 277 276 275 274 273 273 272 273 274 275 276 276 274 274 273 273 272 273 273 274 275 276 276 275 275 275 275 275 276 276 277 276 277 277 277 277 277 277 277 278 278 278
278 278 275 277 277 276 275 275 273 272 282 287 282 280 285 282 283 283 284 282 282 283 283 283 286 289 288 287 287 289 289 289 286 287 282 282 281 281 281 280 279 277 276 275 274 274 274 272 270 270 270 270 271 273 274 274 273 272 272 271 271 272 274 274 275 275 275 274 274 274 274 274 274 275 275 275 275 276 275 275 275 275 275 276 276 276
285 279 278 280 283 275 276 273 275 282 282 286 285 282 284 288 288 284 288 287 283 281 283 285 285 288 288 288 288 287 288 287 282 279 280 280 280 280 279 278 277 275 274 273 273 272 271 270 270 269 269 269 269 269 271 273 272 271 270 270 270 271 273 273 273 273 272 272 272 272 272 272 272 272 273 273 273 273 272 272 273 273 273 273 273 273
285 283 284 280 284 280 279 282 287 284 285 287 288 287 289 289 291 286 287 289 288 285 283 285 288 288 287 287 287 285 286 284 283 281 280 279 278 277 276 276 276 275 274 273 272 272 272 270 269 269 268 267 267 267 268 270 269 269 269 269 270 271 271 272 271 271 270 270 270 270 270 271 270 270 271 271 272 272 272 272 272 271 271 271 271 271
287 288 288 285 284 288 289 290 291 287 282 285 287 285 286 289 290 289 286 286 286 285 284 285 284 284 283 283 285 284 283 282 281 280 278 277 275 275 274 274 274 274 273 272 272 271 271 270 269 268 267 266 266 266 267 267 268 268 268 269 269 269 270 270 269 269 268 268 269 269 269 270 270 270 271 272 273 272 273 272 273 272 272 271 270 270
283 282 284 283 284 283 279 288 287 287 283 285 287 288 286 283 286 285 286 286 284 280 280 279 280 280 281 282 285 284 281 281 279 277 277 275 274 273 272 272 271 272 273 272 272 272 270 269 268 267 266 265 265 266 266 266 267 267 267 267 268 268 268 268 268 268 267 267 267 267 268 270 270 270 271 271 272 273 273 273 273 272 272 272 271 270
280 285 283 283 284 282 283 287 288 289 289 287 286 287 287 288 287 280 281 279 279 276 276 277 277 278 280 281 282 281 280 279 278 276 275 274 273 273 272 271 270 270 270 271 270 270 268 267 266 265 265 264 264 264 265 265 265 265 265 266 267 267 268 267 267 266 266 266 266 266 266 267 269 270 270 270 271 271 272 272 273 272 272 272 272 271
283 285 279 284 283 284 287 288 288 283 282 285 288 288 285 284 284 281 279 278 277 277 276 275 276 277 279 279 280 280 278 277 277 275 274 273 272 272 271 270 270 269 269 268 267 268 267 266 265 264 264 263 264 263 263 263 264 264 264 265 266 267 267 267 267 266 265 266 265 265 265 265 266 267 268 270 271 271 271 270 271 271 272 274 273 272
282 281 284 283 280 280 281 284 286 282 283 286 286 286 283 278 280 280 278 278 277 277 276 276 275 275 276 277 279 279 277 275 275 274 273 273 272 271 270 269 268 267 266 266 266 265 264 264 263 263 262 262 262 262 262 262 262 263 264 264 265 266 267 267 266 266 265 265 265 265 265 264 264 265 266 268 269 270 270 273 273 272 270 270 273 274
284 284 285 281 281 280 285 287 287 287 286 287 283 275 274 276 278 279 279 277 276 276 276 276 275 275 275 275 276 276 275 275 274 274 272 272 271 271 270 269 268 267 266 265 265 264 263 263 262 262 261 261 261 260 260 261 261 261 262 263 264 265 266 266 265 265 265 265 264 265 264 264 264 264 265 266 267 268 268 268 270 271 272 271 271 272
Wind_Speed
3 2 4 7 9 10 9 10 11 4 1 2 2 3 7 7 11 7 5 5 2 2 8 10 11 14 20 16 18 17 11 11 12 15 15 14 12 12 12 12 12 11 14 8 6 7 5 3 2 1 2 3 2 3 5 6 6 7 10 10 10 8 9 9 9 8 9 8 6 4 9 11 8 8 7 7 7 8 8 8 9 8 8 8 8 8
2 4 9 9 9 9 10 7 6 7 5 5 6 5 8 4 11 7 7 4 2 3 3 4 8 15 18 17 18 17 11 16 15 15 16 16 13 12 12 12 10 11 5 5 3 2 2 2 1 2 3 5 5 3 5 8 9 7 6 9 9 7 8 10 11 10 10 9 10 10 10 7 7 8 9 9 8 9 7 8 8 8 8 9 9 8
3 7 12 4 6 5 5 5 6 7 7 4 5 5 6 8 5 10 5 2 0 1 7 5 10 19 19 19 21 19 18 15 11 10 14 12 13 11 11 9 8 7 8 2 3 3 3 1 0 2 2 2 1 5 6 5 5 6 7 7 7 8 9 9 9 9 10 8 7 8 6 9 5 5 6 6 6 5 7 8 8 8 8 9 8 8
3 7 12 6 3 5 5 4 4 4 3 5 3 3 9 2 4 8 2 3 2 0 7 8 12 18 19 19 21 20 13 14 10 9 12 11 13 14 13 8 7 8 5 6 6 7 3 1 0 0 1 1 1 2 2 4 6 6 6 6 7 8 8 8 9 9 7 6 5 4 5 6 7 6 6 5 5 6 6 8 8 8 9 9 9 8
9 4 2 3 5 7 6 3 4 4 7 3 4 5 7 6 5 6 8 8 7 4 1 4 8 13 12 13 10 8 4 4 6 6 7 8 10 12 9 6 7 8 8 7 5 3 2 3 4 5 3 0 2 2 3 3 4 4 6 6 7 7 8 7 7 8 6 6 5 4 4 4 3 3 5 5 6 9 8 7 8 11 8 9 9 8
13 7 3 2 2 4 3 4 5 5 6 3 5 10 10 7 7 6 5 8 7 7 3 4 6 6 6 6 9 10 6 10 3 3 9 6 7 6 7 8 4 4 4 6 7 6 5 5 4 3 1 1 1 3 4 3 3 3 3 4 4 4 4 7 7 8 8 8 9 8 8 8 7 7 8 13 13 9 10 12 6 6 8 8 7 8
7 2 1 4 3 1 2 4 3 6 5 2 6 4 7 6 5 5 6 2 3 3 1 4 2 11 5 11 12 14 12 15 15 8 8 7 9 5 7 5 4 5 5 4 3 3 2 5 3 3 3 4 2 5 2 2 3 3 4 5 6 7 7 7 7 8 8 8 8 11 11 10 11 11 9 6 5 8 7 6 8 8 6 7 9 8
1 2 1 0 3 4 3 6 4 8 3 5 1 3 3 2 3 3 2 5 5 2 4 2 6 6 13 11 8 8 7 13 14 12 7 8 6 5 5 4 4 5 5 5 5 4 4 3 4 5 5 4 6 2 1 3 3 4 5 6 6 5 6 6 7 8 9 10 9 9 8 9 9 10 8 6 5 4 6 7 6 7 7 7 7 9
2 1 1 3 2 3 6 6 3 7 6 3 0 2 3 1 1 2 1 2 1 4 10 1 0 1 8 9 7 4 8 10 10 9 7 3 3 4 4 5 5 4 4 4 4 3 3 3 4 4 3 5 3 3 4 5 5 5 4 5 5 6 6 5 7 9 8 8 9 9 8 8 7 7 6 6 5 6 7 7 5 7 7 7 8 8
2 3 3 5 5 6 5 1 3 8 5 2 1 2 3 3 3 1 1 1 2 1 9 2 5 3 11 4 6 1 3 8 7 6 5 2 3 4 5 5 4 3 2 2 2 2 1 2 2 2 1 1 5 4 4 3 3 4 4 5 5 6 6 6 7 8 9 8 8 9 9 10 7 5 4 6 7 6 7 8 8 7 7 8 8 8
2 3 2 3 5 4 3 0 1 1 2 1 2 0 3 4 2 2 5 2 2 3 9 9 5 4 7 6 7 3 4 3 2 2 2 1 2 4 6 5 4 2 1 0 0 1 2 2 1 1 4 4 2 2 2 3 3 3 4 5 5 7 6 5 7 7 9 8 7 9 9 9 8 7 7 7 6 6 6 8 8 9 9 8 9 7
1 0 1 2 3 3 3 3 2 0 0 1 0 1 4 2 5 2 2 3 2 6 6 3 2 2 6 6 6 7 4 2 4 1 3 6 4 5 5 4 4 3 2 1 1 1 1 1 1 1 3 4 4 1 2 3 2 2 3 3 5 4 5 5 6 6 8 8 8 7 8 9 9 9 8 10 10 10 11 10 10 8 7 7 7 7
4 8 2 0 3 8 3 2 1 2 2 3 3 3 1 4 3 2 1 2 5 6 0 3 2 1 11 13 4 7 9 7 6 5 5 7 6 6 6 6 4 4 4 4 5 4 4 5 5 5 6 4 5 5 4 4 3 2 2 3 4 5 4 5 5 7 7 7 8 8 8 8 7 9 9 10 9 9 10 9 8 8 9 7 8 9
7 1 1 3 2 4 6 6 2 1 1 5 5 4 4 0 2 4 4 2 5 3 4 1 0 5 5 9 11 18 17 12 11 9 9 9 8 7 9 5 4 5 5 5 5 5 5 6 6 5 5 5 5 5 4 4 4 3 3 3 4 6 5 5 5 7 8 9 9 8 8 8 8 9 9 9 10 9 8 8 9 10 10 10 12 11
2 4 5 6 3 1 5 5 8 3 7 8 3 8 7 6 4 3 3 4 4 4 2 3 1 7 0 4 1 6 7 5 6 6 7 8 8 5 2 2 4 4 5 4 4 5 6 7 6 6 5 5 5 4 4 4 4 4 5 5 6 6 6 6 8 7 9 9 9 8 8 9 8 9 9 9 8 8 9 8 9 9 9 10 10 11
7 7 2 1 1 1 6 0 4 5 2 2 3 5 3 7 5 3 4 1 2 2 3 2 6 4 7 5 12 11 9 8 6 9 7 10 8 2 4 6 6 6 6 4 5 6 7 6 5 5 5 5 5 4 4 4 4 4 5 5 5 6 6 6 6 7 8 8 7 7 8 9 9 8 8 7 7 7 9 9 10 10 9 9 8 7
1 4 1 4 2 1 1 0 0 2 4 2 5 5 6 2 3 1 1 1 2 3 8 1 8 9 7 13 14 9 5 7 2 2 4 9 5 5 7 6 6 7 6 5 6 6 7 5 5 6 5 5 5 4 6 7 7 7 5 5 6 6 5 6 6 7 6 6 6 6 6 6 6 8 9 9 9 8 7 8 8 9 10 8 7 8
4 3 0 2 2 0 1 1 0 0 2 4 3 6 1 1 3 3 3 1 1 3 6 1 7 10 2 9 6 6 5 4 2 0 1 2 2 5 7 7 8 8 5 5 5 6 6 5 6 5 5 5 6 7 6 7 6 6 6 7 7 6 8 9 8 8 7 7 7 7 7 7 7 7 7 6 7 6 7 7 7 6 7 9 9 8
3 5 2 1 1 4 2 1 2 1 1 3 1 0 2 2 1 1 3 2 1 2 4 5 4 8 8 10 4 9 8 11 4 0 1 3 5 7 7 7 5 3 3 5 7 7 7 7 7 7 7 7 6 5 6 5 4 4 5 6 7 9 10 8 7 5 6 6 6 6 8 7 7 6 5 5 5 5 7 8 7 8 9 6 6 7
1 2 3 1 1 1 1 3 6 4 1 1 1 1 0 1 2 4 6 3 3 3 2 6 3 10 8 8 9 9 8 9 6 4 5 8 8 7 6 6 6 6 6 6 6 7 8 8 8 8 8 8 8 8 7 5 3 5 7 6 7 6 5 5 6 6 8 8 7 7 5 6 6 6 7 6 6 7 7 7 7 8 7 8 6 8
3 1 4 1 3 1 3 5 9 11 9 2 2 3 1 1 3 1 1 3 2 4 3 1 7 9 7 6 5 10 9 9 5 7 6 6 8 8 7 7 7 7 6 7 8 8 8 9 8 8 7 7 5 4 3 4 7 7 5 6 7 9 8 7 7 7 8 7 8 7 8 7 6 7 6 6 7 7 7 7 7 8 8 5 8 7
1 1 7 0 0 4 8 4 4 6 8 10 12 10 11 7 2 2 9 1 2 2 3 3 10 12 9 6 9 8 6 5 4 5 6 6 7 7 7 7 7 7 9 9 9 8 9 8 8 8 5 4 4 5 5 5 4 5 5 8 7 6 6 7 7 8 8 6 6 8 7 7 5 6 5 6 6 7 7 6 7 6 5 8 8 8
5 3 2 4 8 9 6 1 1 1 1 1 7 6 8 4 4 4 4 6 1 3 4 3 1 14 4 3 1 3 5 5 5 4 7 5 4 5 7 6 7 8 8 9 9 9 9 8 8 6 5 5 6 6 4 4 5 7 7 6 6 6 9 7 7 6 6 6 6 7 6 6 6 5 6 7 7 7 7 6 5 5 7 8 7 7
5 1 1 7 4 4 2 2 1 2 1 1 4 1 4 9 12 10 6 6 6 1 2 1 2 12 4 1 2 1 4 4 4 5 5 5 5 3 2 6 7 7 9 7 5 5 7 6 5 5 6 6 7 6 6 6 5 5 5 6 5 7 8 5 5 5 5 5 6 6 5 7 6 6 7 8 8 8 7 6 6 5 6 6 5 7
5 4 5 1 4 4 3 2 1 2 1 4 3 6 9 3 2 2 4 1 1 7 8 8 10 14 1 1 4 5 5 5 5 5 3 4 5 3 4 5 5 6 6 6 7 9 6 5 8 9 7 7 8 5 5 5 6 6 7 5 6 7 6 5 4 5 5 6 7 7 8 7 7 7 7 8 7 7 6 6 6 5 6 5 5 5
4 5 7 4 8 6 4 2 5 7 10 3 3 3 7 12 9 6 6 4 7 5 10 6 9 18 8 6 10 12 9 8 9 7 4 5 6 8 6 6 5 4 7 7 8 7 9 11 8 6 7 7 7 5 5 5 5 5 5 6 5 5 5 5 4 5 6 6 7 7 8 7 6 7 8 8 7 7 6 5 5 5 4 5 6 5
3 0 6 9 10 11 12 6 2 4 5 5 7 10 11 11 12 7 5 4 11 7 8 11 16 19 18 14 14 18 16 15 16 10 10 12 8 7 6 7 7 7 7 9 8 8 6 7 10 10 7 8 6 5 6 6 6 5 5 6 5 5 6 6 6 6 5 5 6 6 6 6 7 7 6 6 6 5 4 4 5 4 5 4 5 5
2 2 8 10 11 12 12 9 6 6 5 6 6 7 9 11 13 14 11 12 9 2 15 10 15 13 22 23 22 19 18 17 13 9 9 9 11 13 11 9 10 9 9 8 7 9 11 12 11 8 8 7 7 6 6 6 6 6 6 7 5 6 5 5 5 5 5 5 5 5 6 6 5 5 5 5 4 4 5 4 4 5 5 4 5 5
5 7 6 6 10 14 12 11 4 3 5 6 8 8 10 12 10 14 15 18 11 12 20 6 13 14 21 22 26 24 19 13 11 13 9 11 11 9 6 8 11 13 13 12 11 10 10 11 11 10 7 7 6 7 7 6 6 5 4 5 4 5 6 6 6 5 5 5 6 6 5 4 4 4 4 4 4 4 4 5 5 5 5 4 5 5
2 7 5 7 10 9 10 11 10 9 7 7 6 10 9 12 16 19 20 22 21 19 12 6 9 19 18 22 25 24 20 9 8 6 6 7 9 7 7 10 12 14 13 12 12 11 10 11 10 10 9 6 7 7 7 6 6 5 6 5 4 5 4 6 5 6 5 6 6 5 4 4 4 5 4 4 5 5 5 5 5 5 4 5 5 4
6 6 6 2 4 7 10 10 9 9 8 16 15 12 7 8 13 21 19 18 15 19 11 16 16 16 20 22 22 21 17 15 14 15 17 15 9 6 7 11 13 13 12 11 10 11 10 10 11 10 9 9 8 10 9 8 7 5 5 5 5 5 4 5 5 5 5 5 4 4 4 4 4 4 4 4 4 3 4 3 3 3 3 3 3 4
4 4 2 2 3 5 3 10 13 8 10 17 19 12 10 13 16 14 17 10 9 15 18 16 12 18 26 21 11 14 17 20 23 24 18 13 8 8 12 14 13 13 12 12 13 12 12 14 14 13 13 11 10 9 7 6 6 5 7 5 5 4 4 4 4 4 4 4 4 3 4 4 4 4 2 3 3 3 3 3 3 3 3 3 2 1
7 4 3 1 6 9 4 2 4 7 13 22 23 17 19 23 23 12 12 8 19 20 18 15 22 22 20 13 10 15 15 21 22 21 18 6 8 11 14 16 16 14 14 14 15 15 15 15 14 14 13 8 9 9 10 8 7 8 6 6 5 5 5 4 4 4 4 3 4 4 4 4 5 4 4 4 3 3 4 4 4 4 4 4 3 4
4 6 3 3 6 1 3 3 2 4 15 20 3 23 27 26 22 21 20 21 25 18 20 19 21 12 8 12 17 22 23 23 23 17 2 8 8 10 13 14 14 14 13 14 15 16 15 12 11 10 10 9 8 7 4 6 8 6 5 6 5 6 4 5 3 4 4 3 3 3 3 4 4 4 4 3 4 4 4 4 5 4 4 5 4 5
8 5 5 3 3 4 1 3 2 12 26 1 1 8 22 24 21 25 27 27 25 20 23 20 18 15 18 17 19 23 25 27 10 4 12 8 8 10 11 10 12 13 15 15 16 14 13 13 12 8 6 6 5 4 6 4 5 7 5 6 6 4 5 4 5 4 4 4 3 3 3 3 3 3 2 2 2 3 3 3 3 3 3 4 5 5
8 9 4 2 3 2 2 6 4 28 2 0 3 1 3 2 2 7 16 21 20 19 21 22 23 22 21 22 24 24 24 11 7 7 9 17 16 16 9 10 12 14 16 16 16 14 13 13 13 11 8 3 5 5 5 7 6 8 6 4 6 5 5 5 6 5 4 5 4 4 3 4 4 3 3 2 2 2 1 1 0 1 0 1 1 1
15 6 6 6 3 9 5 9 21 17 19 27 8 2 6 7 10 13 12 20 20 23 18 18 21 20 24 26 26 24 9 5 8 16 19 21 23 7 10 15 17 18 17 14 11 11 5 4 5 3 4 4 4 6 7 7 7 9 8 8 5 6 5 6 6 5 5 5 4 4 3 3 4 4 3 3 3 2 1 1 1 1 2 2 1 1
11 14 6 9 7 10 5 9 7 8 18 15 7 12 15 13 13 17 11 26 12 19 17 20 21 25 26 25 20 12 2 3 11 16 23 21 3 9 12 14 15 11 7 6 2 2 3 4 6 6 7 8 7 5 5 6 9 10 9 8 6 7 6 6 5 3 5 5 4 4 4 4 4 5 4 4 4 3 3 2 3 3 3 2 2 2
4 1 9 15 6 5 9 12 12 12 21 4 4 7 11 9 10 5 2 19 5 15 15 21 24 25 22 18 18 5 5 7 14 15 18 11 3 6 9 9 4 1 1 1 4 6 6 6 7 7 6 7 9 4 3 7 10 11 10 7 7 7 7 6 4 4 5 4 4 5 5 5 6 5 5 5 3 3 4 4 3 1 3 4 4 3
8 4 5 10 13 13 9 7 16 9 13 4 6 4 9 11 10 7 4 13 9 14 18 20 22 20 15 17 4 8 10 8 11 16 15 6 0 1 1 1 3 4 5 7 8 7 7 6 9 10 10 8 5 3 4 7 9 10 10 7 7 8 7 4 3 3 4 4 5 5 6 5 6 5 5 4 3 4 4 3 3 5 4 4 4 4
6 5 8 18 16 13 13 14 10 13 11 6 3 3 7 6 8 6 21 4 13 15 14 13 15 14 13 8 9 9 13 16 17 10 4 3 5 5 6 7 6 6 7 7 8 7 9 10 11 10 8 6 5 5 5 7 10 9 8 7 9 8 4 2 3 3 4 5 6 6 6 6 5 6 5 4 4 4 5 5 5 5 5 4 4 4
10 9 2 7 13 16 15 14 17 16 10 12 4 15 10 8 6 22 5 3 5 9 1 11 14 13 11 9 10 11 13 15 14 1 3 5 5 4 5 6 9 10 9 8 8 9 10 10 11 11 11 9 8 7 6 8 11 8 7 8 9 5 2 3 4 5 6 7 7 6 7 6 6 6 6 5 5 6 6 5 5 5 4 5 5 5
13 10 12 14 9 5 5 12 9 15 8 24 11 4 9 13 15 5 3 2 5 6 7 6 10 12 10 10 11 14 13 10 4 2 3 4 6 6 6 5 7 8 8 8 10 8 10 11 10 10 8 7 9 8 5 10 11 8 8 11 6 2 3 4 5 6 7 7 7 7 7 7 8 7 5 6 5 6 6 5 6 6 6 5 5 6
13 10 7 13 11 10 13 13 14 21 3 20 22 16 13 18 8 8 8 8 6 4 6 7 9 12 10 11 11 12 13 10 1 5 6 6 7 7 7 8 8 9 9 9 9 8 12 11 9 9 9 8 8 8 8 7 10 7 9 8 4 3 3 5 6 7 7 7 7 7 7 7 7 7 6 6 6 7 7 7 6 7 6 5 5 5
17 22 18 16 12 13 16 19 23 5 11 14 15 8 13 18 16 9 9 9 8 8 6 7 12 12 11 9 7 6 7 6 4 4 7 6 6 7 8 7 7 8 8 8 9 8 9 10 10 9 10 9 10 9 9 8 8 9 8 5 5 4 4 5 6 8 7 7 6 6 6 7 7 7 6 5 6 6 6 6 6 7 5 6 6 6
12 18 10 7 9 15 17 16 13 8 5 8 10 5 7 12 13 9 7 8 7 4 5 7 3 4 4 4 6 7 3 1 7 6 9 8 8 7 8 9 8 10 10 9 8 9 10 10 10 10 10 10 10 8 8 9 8 10 6 6 6 5 3 4 6 7 6 6 6 6 5 8 7 7 7 7 7 6 6 6 5 6 5 6 6 6
10 4 9 15 4 8 16 17 27 21 5 8 12 12 6 3 5 5 7 6 2 0 0 2 2 2 1 1 6 5 5 6 10 8 7 7 6 6 6 8 8 8 9 10 8 7 8 8 8 9 10 10 8 8 8 9 8 8 6 6 6 5 3 4 7 7 6 7 6 5 6 7 6 5 5 5 6 6 6 6 5 6 6 5 5 5
8 9 11 12 13 16 20 21 15 12 14 10 9 10 13 12 8 1 1 1 2 3 2 0 1 1 1 3 3 7 6 5 11 10 8 7 7 5 5 7 9 10 8 8 8 9 9 9 9 9 9 9 7 7 8 8 8 8 7 6 6 4 3 5 6 7 6 7 6 6 5 6 6 7 6 5 6 6 5 6 6 6 6 4 4 4
3 9 12 10 17 18 17 18 15 4 1 6 13 11 4 3 3 4 3 3 3 4 4 5 4 2 2 3 4 9 10 5 7 9 9 8 7 6 5 7 8 10 9 8 6 5 7 8 10 9 10 9 7 7 7 8 8 7 7 6 5 2 4 6 6 7 7 6 6 6 5 5 5 5 5 6 7 7 6 4 5 7 6 7 5 4
3 14 8 10 16 14 17 16 12 12 13 12 9 7 7 1 3 5 4 4 3 5 4 6 5 5 5 3 2 6 12 9 8 8 9 7 7 7 8 8 9 10 9 8 8 9 10 9 11 11 10 8 6 7 7 8 8 7 6 5 4 1 4 5 6 6 6 6 6 5 5 5 5 5 5 5 5 7 8 13 13 9 7 7 12 14
15 13 10 13 11 14 10 13 8 9 8 8 3 2 3 2 2 4 5 4 3 2 2 7 9 6 7 7 4 6 9 9 9 8 9 8 7 6 6 8 8 8 9 9 10 9 10 10 9 10 10 8 7 7 7 7 6 5 4 3 3 2 3 4 6 6 5 6 6 6 5 5 5 4 5 5 5 6 6 6 9 15 17 14 13 13
Wind_Direction
146 142 187 206 210 212 216 208 223 219 211 270 272 289 278 279 281 272 268 257 193 258 247 247 256 264 272 276 278 276 279 265 266 265 265 266 269 268 264 258 254 250 248 256 256 258 238 248 252 262 197 199 170 190 183 180 187 182 176 166 182 177 162 159 160 166 166 171 170 179 194 201 192 195 194 197 200 197 197 188 190 186 187 184 183 184
86 243 247 220 213 207 216 219 240 268 280 266 279 279 285 252 276 283 288 311 280 211 291 283 284 274 274 282 277 277 267 262 255 260 264 267 266 265 261 260 252 252 284 292 278 189 222 236 152 104 120 142 142 193 166 184 191 182 167 178 175 161 169 174 174 172 177 182 186 183 195 188 185 186 191 202 202 201 190 188 190 187 185 184 186 182
200 219 243 211 222 221 231 212 214 217 247 255 235 276 293 275 253 282 265 323 248 142 266 309 304 288 287 282 281 273 265 260 252 238 253 259 270 268 264 259 265 274 274 270 241 223 215 239 15 80 100 95 111 157 178 182 157 163 171 182 167 173 174 181 178 172 185 187 187 183 173 177 176 206 203 204 194 179 184 192 191 188 184 185 188 180
268 260 258 223 193 196 241 215 206 233 234 236 258 282 259 266 7 306 260 14 352 81 295 309 302 288 291 280 268 274 269 261 257 240 242 238 248 256 259 256 251 256 241 211 207 209 207 254 315 38 140 207 85 126 141 165 175 175 178 178 173 178 180 177 183 183 182 173 164 156 149 165 167 179 187 187 174 189 184 194 193 196 189 187 185 180
227 218 148 148 187 183 214 216 201 228 262 227 209 239 265 274 241 203 293 338 307 298 188 330 295 285 275 283 306 296 293 261 269 252 256 256 240 252 274 285 237 224 191 202 226 249 222 207 205 196 206 309 197 215 208 196 192 185 188 186 178 174 178 177 174 171 151 132 120 109 89 118 109 77 160 168 204 198 194 187 195 202 188 186 184 178
270 263 141 95 119 187 201 260 228 178 256 303 228 213 237 256 271 267 308 356 345 327 343 46 342 285 283 281 263 282 305 288 231 274 272 262 266 255 247 240 234 249 220 180 197 205 210 217 248 276 256 210 236 241 237 206 206 167 163 158 163 155 164 170 174 165 156 164 159 152 155 168 184 191 180 201 201 190 195 203 186 190 192 183 181 180
230 316 141 239 229 200 204 237 233 152 217 344 271 196 229 246 259 272 295 41 295 268 317 42 94 279 308 278 288 285 292 291 295 277 282 281 269 245 230 223 220 213 219 260 271 272 226 241 254 281 289 258 234 246 229 230 210 183 164 171 174 173 176 175 174 168 163 166 175 180 184 186 192 198 214 205 187 192 198 174 183 192 181 186 181 185
119 353 107 62 188 194 229 267 225 159 152 248 249 116 131 139 190 224 186 188 250 279 284 156 170 234 298 288 232 277 278 277 287 296 292 274 258 229 236 233 226 219 210 198 217 233 237 234 199 215 230 234 223 240 214 213 206 187 179 172 178 179 177 179 170 174 176 174 181 187 193 193 198 203 201 187 190 170 166 180 181 173 190 188 189 184
168 247 195 207 176 199 223 225 171 170 164 217 226 163 83 80 158 106 121 210 256 35 287 335 129 245 246 271 291 270 289 286 293 288 292 293 277 267 247 225 218 220 229 214 204 211 221 222 231 239 246 239 244 247 207 200 201 197 183 173 171 179 177 181 175 176 187 184 183 188 188 200 209 198 187 170 162 167 169 177 174 180 186 190 195 192
285 205 218 171 154 223 224 263 175 162 215 280 189 85 73 69 71 122 173 242 335 76 268 255 194 218 272 274 292 320 213 275 267 287 297 287 262 265 253 241 249 282 286 233 243 242 261 276 279 251 276 225 224 226 225 219 184 187 168 172 171 191 187 183 183 184 188 189 181 189 195 199 197 181 166 162 170 174 172 182 183 184 182 192 195 198
246 353 162 130 201 210 146 141 142 266 187 83 59 67 355 31 27 16 67 80 38 235 258 232 219 204 297 270 231 174 208 204 246 294 306 310 306 274 250 249 264 280 278 327 329 329 318 325 305 297 191 221 257 253 239 222 210 192 175 176 184 199 191 185 187 183 191 194 190 195 197 197 191 184 168 169 183 171 173 186 189 189 194 189 198 188
291 13 151 249 98 84 110 81 351 50 116 104 89 111 15 326 8 35 339 42 189 266 260 245 191 201 215 285 279 253 295 264 170 125 313 303 278 259 258 269 268 252 215 217 239 252 281 278 280 263 234 234 237 263 249 237 229 213 205 178 191 207 199 194 192 189 197 194 201 202 197 198 194 180 181 186 187 186 188 191 192 188 175 192 193 190
265 224 225 352 200 131 125 107 280 26 32 106 80 46 87 274 22 285 17 263 215 215 262 332 180 256 239 232 282 295 274 270 231 234 266 265 257 246 256 256 253 229 208 195 205 211 218 211 212 223 232 232 235 221 223 231 228 228 210 191 195 220 205 203 193 195 200 199 205 203 201 202 190 189 192 195 195 191 192 190 185 177 194 184 188 201
277 317 225 236 51 214 134 163 210 162 242 123 162 152 117 207 215 257 262 251 301 292 276 330 44 279 261 285 226 241 254 255 266 249 240 237 240 232 222 227 230 230 209 207 204 214 217 223 228 228 227 224 228 230 227 224 211 215 209 202 198 228 202 201 199 200 200 206 205 202 202 198 190 198 196 201 199 195 195 188 191 191 194 192 201 198
309 336 265 147 221 135 188 193 180 167 162 202 121 155 181 142 157 222 205 204 217 215 266 287 50 238 52 238 226 224 255 262 240 253 250 244 243 265 273 201 234 236 245 232 229 225 223 229 225 225 226 232 236 241 237 225 217 201 213 201 210 225 220 202 206 202 205 207 204 202 200 196 194 198 199 206 202 191 192 194 194 199 197 200 204 203
207 221 268 6 200 89 178 336 131 100 59 207 158 84 93 238 134 207 211 158 272 334 345 231 215 206 209 272 302 274 270 266 254 248 244 255 257 204 180 198 208 219 229 223 229 248 251 244 247 249 242 234 231 229 223 224 215 213 221 217 221 221 221 214 215 216 212 213 207 202 199 202 197 198 198 202 201 201 194 193 196 200 200 207 203 204
37 273 308 327 50 103 205 116 200 127 190 235 118 205 212 176 120 79 12 355 78 38 260 205 311 273 303 298 281 303 343 297 33 207 223 240 227 178 190 200 213 220 215 221 225 228 241 252 253 240 237 234 231 228 218 215 206 207 209 211 222 225 229 223 221 220 219 219 210 216 212 206 204 201 200 202 203 200 196 195 201 199 204 201 195 199
151 241 305 105 195 315 204 162 44 344 149 103 186 242 222 160 94 135 228 338 68 175 264 107 227 276 48 285 323 337 336 302 309 359 273 254 172 189 211 208 210 213 223 237 238 237 236 236 238 245 249 238 223 214 216 223 211 205 201 201 213 221 222 225 214 215 213 213 215 216 214 214 209 207 211 206 203 197 191 203 203 203 197 203 202 196
140 297 292 284 139 265 352 108 324 319 187 155 191 260 118 213 211 301 86 285 248 269 270 294 258 261 198 250 326 288 279 279 288 334 130 221 223 224 230 235 243 288 277 254 244 245 246 237 234 230 232 238 238 234 219 221 202 206 213 212 207 216 220 220 215 216 218 211 214 212 212 209 213 214 211 211 205 191 201 204 203 204 209 205 198 192
26 189 295 285 158 312 4 104 203 207 360 12 360 346 271 109 202 120 211 186 116 261 53 290 6 260 187 218 207 239 248 257 250 281 225 219 217 219 229 225 222 229 230 235 243 244 244 245 238 229 227 231 225 220 220 206 183 208 216 206 217 229 232 226 219 209 212 213 211 218 215 218 209 207 204 200 193 200 206 208 202 205 207 207 190 199
226 124 260 285 304 89 203 188 215 165 169 170 199 279 354 226 216 118 264 158 180 179 178 211 309 270 240 228 204 241 245 253 222 220 240 231 227 219 216 214 216 222 226 233 234 237 243 248 253 252 245 248 265 265 212 185 199 213 201 212 215 213 218 215 218 205 217 202 210 208 213 214 208 212 206 203 201 203 207 206 204 205 205 182 202 193
200 185 211 323 181 231 246 246 210 174 181 175 174 203 184 143 163 178 263 33 115 112 245 131 256 283 274 190 224 245 263 277 257 212 237 251 240 222 218 223 216 215 220 222 227 229 239 245 255 264 267 266 272 256 228 222 214 228 214 216 216 217 221 214 215 208 214 206 205 206 211 212 207 208 201 206 208 215 211 208 206 200 185 200 204 191
161 141 102 221 204 214 227 270 340 191 125 180 165 227 171 171 104 127 214 262 43 244 116 166 63 270 251 212 233 240 254 254 249 202 242 256 248 241 239 235 226 218 229 226 224 225 227 234 239 250 265 268 242 233 220 216 210 221 224 221 221 210 228 213 219 210 201 198 200 211 210 201 204 202 206 205 212 214 214 211 205 192 195 203 202 200
117 135 252 282 301 306 327 328 48 43 78 6 279 180 139 194 197 200 183 181 153 169 176 289 200 259 265 268 262 270 264 269 277 204 233 303 288 281 254 247 245 241 240 252 266 262 249 248 261 276 265 259 254 240 228 219 220 228 233 229 217 221 230 218 219 202 191 195 202 203 197 201 202 197 204 209 215 216 217 211 205 190 201 205 198 200
147 253 141 299 349 341 340 350 14 343 65 227 197 207 206 215 147 153 108 137 231 207 180 150 234 262 283 278 316 301 312 316 305 277 210 294 295 277 286 284 270 263 277 274 256 248 250 257 253 244 239 238 245 245 247 239 226 221 232 224 221 228 225 219 201 192 198 191 195 197 196 205 198 198 203 211 213 220 218 215 207 193 200 194 201 204
169 174 137 173 217 245 261 241 245 238 219 209 232 204 200 196 182 117 226 189 209 254 193 184 243 255 257 317 316 293 289 291 278 271 251 220 249 288 298 279 267 268 259 256 261 270 253 237 234 245 243 244 241 231 234 239 236 231 232 230 216 219 216 217 189 198 195 199 196 199 199 201 194 201 203 204 209 214 214 211 206 206 209 193 202 197
183 157 188 189 191 223 234 218 242 108 77 175 230 189 202 205 200 187 84 116 209 215 202 210 223 256 273 263 254 261 265 258 259 267 281 283 274 259 252 269 273 265 254 251 248 256 284 287 254 232 240 242 250 239 233 228 232 232 228 239 222 209 203 204 187 193 195 198 199 194 202 195 200 199 200 200 206 204 202 204 206 200 210 202 200 195
83 204 226 223 222 231 241 238 199 174 186 221 199 220 206 185 191 189 183 217 211 192 253 210 231 239 258 266 263 254 254 259 266 258 236 247 262 260 259 260 266 265 260 251 255 256 251 253 262 252 225 234 244 244 246 237 228 220 211 224 213 198 196 190 176 179 187 184 199 201 202 202 194 191 195 195 191 193 198 199 199 205 209 184 196 199
162 208 231 199 241 243 246 263 209 211 234 223 209 209 194 198 180 193 216 226 208 198 237 197 208 225 248 255 262 261 251 248 248 251 240 229 237 241 243 250 252 252 257 263 263 256 247 248 251 254 249 235 242 247 240 237 235 233 240 236 216 179 191 173 160 170 175 181 191 206 198 186 188 179 179 179 180 188 196 199 202 201 197 190 201 203
117 236 212 212 241 251 261 258 258 232 250 250 219 223 215 180 193 201 214 220 219 233 242 243 223 226 236 249 252 260 270 259 251 251 244 236 232 228 221 232 238 244 247 249 249 245 239 241 250 258 262 255 235 240 238 233 222 210 204 211 199 184 185 145 167 165 173 181 197 196 184 177 169 173 171 165 179 192 191 191 192 185 185 195 201 202
164 270 200 199 248 251 256 263 268 249 234 256 241 226 200 199 212 210 217 226 229 252 254 252 247 270 258 243 258 269 280 291 283 263 253 252 242 221 225 231 236 241 241 242 244 245 246 250 255 262 260 247 234 229 221 212 206 197 200 194 180 184 174 155 154 171 170 188 196 180 163 151 162 147 162 181 170 162 161 170 161 164 178 191 186 196
149 259 46 71 257 275 250 254 262 288 266 254 251 224 195 208 226 214 223 202 200 226 232 241 255 248 257 256 260 282 283 276 271 269 263 253 250 224 228 235 237 235 234 238 242 251 258 257 256 253 248 239 229 224 213 206 197 176 195 183 179 171 134 130 143 160 180 185 161 151 148 145 131 124 123 114 132 136 136 118 119 125 135 135 139 144
176 151 176 103 244 253 250 280 325 320 319 282 244 197 210 219 221 219 225 184 211 214 232 226 237 234 249 278 292 265 253 263 270 266 268 276 218 220 222 232 236 233 235 240 246 246 245 247 245 242 242 236 227 217 214 190 166 187 179 168 173 129 131 133 144 145 147 147 142 140 132 132 130 133 131 138 139 136 125 124 118 127 134 142 153 131
130 161 186 163 218 252 283 300 14 23 267 257 122 177 196 213 208 219 225 218 224 197 226 223 241 252 255 255 250 260 260 253 247 269 259 238 245 224 229 227 230 234 233 236 237 238 242 244 247 241 231 224 223 219 202 187 171 167 153 143 132 127 123 122 106 117 109 92 90 106 114 125 129 137 147 143 140 134 133 138 152 155 150 138 138 134
172 174 203 147 225 251 84 97 254 253 249 329 294 194 193 203 205 212 225 225 230 219 237 248 251 249 244 242 243 247 251 255 273 343 287 265 225 239 231 221 225 229 232 235 239 238 236 236 240 244 235 232 218 178 134 119 110 118 112 122 112 107 114 107 112 96 96 88 70 76 82 90 92 99 80 59 102 108 123 139 151 153 175 163 164 164
176 167 166 217 149 45 78 187 193 241 237 262 34 20 23 224 221 226 258 248 239 229 225 232 240 244 246 247 246 246 251 287 335 277 255 267 256 245 243 227 224 222 228 228 230 234 229 227 225 222 219 174 139 142 137 134 134 115 105 85 100 96 96 103 93 87 82 74 57 58 56 91 93 88 81 73 67 77 66 26 70 124 273 64 38 34
164 157 157 232 161 216 194 188 229 290 319 278 253 224 161 164 174 171 233 249 205 228 215 229 238 238 243 244 246 254 279 3 321 295 273 253 259 238 211 237 229 229 228 235 220 233 236 245 232 198 123 118 124 125 124 127 114 109 102 90 84 91 87 86 82 77 81 77 63 57 49 70 96 84 71 73 76 56 43 29 6 16 8 53 27 68
168 183 187 199 231 189 185 243 282 276 261 277 162 213 184 188 171 195 186 263 169 205 203 216 228 234 238 245 249 252 73 299 281 269 263 270 219 222 222 230 240 241 238 222 122 71 75 87 91 92 122 117 88 77 110 117 114 106 101 98 93 92 80 73 66 62 72 71 61 61 59 56 70 77 69 69 65 60 52 38 40 38 20 96 77 48
290 85 173 195 220 125 207 229 238 246 252 157 218 198 197 181 157 114 45 261 157 182 197 204 222 231 232 240 246 117 151 223 249 255 272 275 189 217 218 239 263 345 52 99 151 126 100 92 97 100 86 84 78 33 88 112 110 108 107 105 100 92 85 73 66 68 80 75 72 71 70 71 73 73 72 69 58 59 60 51 49 8 39 51 70 60
191 183 126 209 222 219 207 216 242 219 257 202 183 188 175 161 134 106 222 266 163 198 200 202 213 226 227 236 186 145 171 215 247 253 254 294 133 38 353 201 98 83 67 77 72 91 100 100 90 65 56 49 23 4 86 95 98 101 107 102 99 87 80 73 76 86 86 79 68 70 65 66 74 69 68 67 61 54 49 21 38 36 49 41 58 67
183 242 206 210 216 218 202 241 266 269 246 169 205 160 93 120 105 144 220 230 194 198 203 195 211 219 227 217 146 194 209 210 227 239 56 123 78 41 40 58 73 82 96 87 89 82 79 69 74 75 59 41 25 48 70 94 96 95 93 97 86 74 57 38 63 78 77 70 65 60 62 57 63 69 62 59 72 74 55 40 43 38 43 43 51 69
203 182 243 216 224 218 220 229 240 263 246 151 192 137 153 102 166 220 213 200 171 216 167 186 204 219 221 203 191 212 225 226 238 48 54 43 92 84 68 74 82 74 65 68 73 81 85 77 70 62 49 33 38 48 65 85 88 85 87 84 72 60 33 68 82 83 78 73 67 61 55 54 50 52 53 43 53 65 55 40 48 48 44 50 66 68
183 169 194 202 211 245 211 229 258 266 261 147 136 183 189 196 227 170 208 238 194 191 184 207 212 228 208 228 217 222 238 248 252 235 80 82 82 81 73 71 75 84 78 70 63 52 82 79 61 51 41 21 27 32 46 94 93 89 80 64 44 10 48 77 86 84 82 76 69 63 58 53 50 46 42 47 50 69 63 46 51 45 45 55 65 71
158 189 192 217 177 193 194 213 219 226 142 157 154 184 203 218 200 155 182 225 237 179 182 198 221 222 217 215 229 230 235 237 77 97 80 74 79 82 76 79 86 78 75 69 71 78 84 79 71 66 48 37 30 25 24 60 91 84 79 60 2 1 51 74 80 83 81 76 73 70 63 60 56 51 46 43 50 62 62 49 51 53 46 51 65 71
177 208 194 208 173 188 200 214 227 181 167 187 186 201 195 211 222 203 191 211 207 238 209 196 218 222 221 223 243 256 257 235 190 142 132 123 98 86 81 69 79 81 74 82 84 83 73 83 87 81 65 47 42 42 41 38 68 71 67 30 3 4 53 81 86 86 85 83 80 78 79 73 65 61 58 52 58 67 61 54 50 57 34 51 55 63
202 218 218 245 215 226 248 244 251 220 167 205 232 220 209 221 231 231 225 239 233 227 166 199 288 305 273 207 203 235 212 102 114 103 92 104 99 97 93 88 79 80 78 75 75 74 89 86 83 80 78 60 47 49 49 48 57 64 48 12 2 356 28 77 86 84 83 80 75 73 79 81 71 65 63 65 67 71 71 73 67 72 56 60 63 62
237 198 205 233 190 177 240 231 240 236 191 199 211 240 248 232 242 257 258 259 294 73 21 13 220 168 198 198 215 195 133 140 118 110 103 103 96 98 100 96 85 76 88 93 93 88 78 79 74 74 78 67 45 47 53 57 54 52 35 16 356 344 34 75 82 82 73 71 68 60 63 74 75 74 62 59 68 71 71 71 73 71 64 63 64 66
249 181 225 223 227 217 238 236 243 237 230 208 202 219 238 241 230 80 177 311 129 93 83 181 18 43 33 123 159 132 131 143 139 138 128 124 124 122 121 110 106 97 78 78 83 86 86 86 91 86 78 69 55 52 55 53 53 35 24 14 1 343 51 73 80 85 83 75 72 67 62 70 72 79 82 73 70 71 66 65 66 66 68 54 61 79
239 144 221 195 231 237 255 261 260 227 353 257 229 227 219 207 187 158 118 117 129 127 106 68 55 42 85 118 131 128 120 117 120 122 123 129 128 131 129 114 101 102 104 91 74 76 100 106 99 95 90 84 74 72 68 59 48 29 25 11 355 340 68 78 77 78 78 78 77 74 71 71 66 67 79 85 79 71 63 54 61 67 60 59 46 62
174 219 203 207 236 236 235 242 240 250 248 245 247 230 212 160 172 168 130 125 137 152 154 113 60 29 47 45 115 144 129 130 128 127 117 118 120 126 127 118 110 106 101 101 104 103 99 101 108 107 101 95 92 80 72 59 47 32 22 1 339 357 101 101 94 84 76 74 75 72 73 71 67 58 60 71 90 99 84 71 69 71 71 53 60 69
230 227 218 230 222 241 246 263 263 254 256 254 264 45 9 344 188 173 178 142 109 96 235 139 126 91 52 31 19 104 109 126 129 119 111 117 120 118 112 115 114 111 114 119 111 102 101 101 100 102 100 98 91 76 68 64 52 37 20 352 339 37 87 97 93 82 73 70 66 68 65 67 65 64 71 70 74 83 93 89 71 70 69 70 67 64